Regional Weather Roundup
Issued by NWS

Home | Current Version | Previous Version | Graphics & Text | Print | Product List | Glossary On
Versions: 1 2 3 4 5 6 7 8 9 10 11 12 13 14 15 16 17 18 19 20 21 22 23 24 25 26 27 28 29 30 31 32 33 34 35 36 37 38 39 40 41 42 43 44 45 46 47 48 49 50
000
ASUS43 KMPX 280110
RWRMN
WEATHER ROUNDUP FOR MINNESOTA
NATIONAL WEATHER SERVICE TWIN CITIES/CHANHASSEN MN
700 PM CST FRI FEB 27 2015


NOTE: "FAIR" INDICATES FEW OR NO CLOUDS BELOW 12,000 FEET WITH NO
SIGNIFICANT WEATHER AND/OR OBSTRUCTIONS TO VISIBILITY. N/A MEANS
CURRENT SKY AND/OR WEATHER CONDITIONS ARE NOT AVAILABLE.

MNZ060>063-068>070-280200-
   Twin Cities Metro

CITY           SKY/WX    TMP DP  RH WIND       PRES   REMARKS
TWIN CITIES    CLEAR     11  -3  53 SW8       30.52R WCI  -1
ST PAUL        CLEAR     11  -2  56 SW7       30.54R WCI   0
CRYSTAL        CLEAR     12   0  58 SW8       30.50R WCI   0
BLAINE         CLEAR     12   1  62 SW10      30.50R WCI  -1
LAKEVILLE      CLEAR      1  -6  71 SW1       30.52R
EDEN PRAIRIE   CLEAR      7  -3  64 SW5       30.51R WCI  -2
SOUTH ST PAUL  CLEAR     11  -1  57 S5        30.52S WCI   3
LAKE ELMO      FAIR      10   1  67 S9        30.51R WCI  -2
$$
MNZ001>005-007-008-013>017-022>024-027-028-280200-
   Northwest Minnesota

CITY           SKY/WX    TMP DP  RH WIND       PRES   REMARKS
BEMIDJI        CLEAR     10  -5  50 SW3       30.34R
HALLOCK        MOCLDY     7   1  78 S6        30.32S WCI  -3
ROSEAU         CLEAR      9   1  72 SW9       30.31S WCI  -5
WARROAD        CLEAR      9  -2  61 CALM      30.32S
THIEF RVR FALL CLEAR      9   0  66 SW8       30.34S WCI  -4
CROOKSTON      PTCLDY     7   0  72 SW9       30.38S WCI  -7
FOSSTON        CLEAR      1  -6  71 S7        30.36R WCI -11
DETROIT LAKES  CLEAR     10   0  61 S5        30.37S WCI   2
MOORHEAD       CLEAR     12   1  62 S6        30.40S WCI   3
PARK RAPIDS    CLEAR      5  -7  57 SW6       30.36R WCI  -6
MAHNOMEN       FAIR       8  -1  65 S7        30.36S WCI  -3
$$
MNZ006-009>011-018-025>026-280200-
   North Central Minnesota

CITY           SKY/WX    TMP DP  RH WIND       PRES   REMARKS
BAUDETTE       PTCLDY     9  -7  48 SW7       30.30R WCI  -2
FLAG ISLAND    PTCLDY     9   0  66 SW13      30.28R WCI  -7
INTL FALLS     CLEAR      9  -9  44 SW7       30.31R WCI  -2
WASKISH        CLEAR      9  -2  61 CALM      30.34S
BIG FORK       CLEAR      7 -11  43 CALM      30.34R
LONGVILLE      CLEAR     10  -6  48 CALM      30.37R
GRAND RAPIDS   CLEAR     16  -8  35 S5        30.34R WCI   9
CRANE LAKE     PTCLDY    12 -15  29 CALM      30.34R
ORR            PTCLDY    10 -17  28 CALM      30.29R
COOK           CLEAR     12  -9  37 SW5       30.33R WCI   4
WALKER         FAIR      12  -8  41 SW5       30.36R WCI   4
$$
MNZ012-019>021-037-280200-
   Northeast Minnesota

CITY           SKY/WX    TMP DP  RH WIND       PRES   REMARKS
DULUTH         CLEAR     14  -7  38 SW9       30.36R WCI   2
ELY            PTCLDY    12  -9  37 SW5       30.30S WCI   4
HIBBING        CLEAR     13 -11  33 W5        30.34R WCI   5
EVELETH        CLEAR     14  -9  34 SW5       30.34R WCI   6
DULUTH HARBOR  CLEAR     16  -6  38 SW8       30.44R WCI   5
TWO HARBORS    CLEAR     16  -4  41 SW5       30.35S WCI   9
SILVER BAY     CLEAR     12  -8  40 CALM      30.34R
GRAND MARAIS     N/A     15  -3  44 NW5       30.35R WCI   8
G MARAIS ARPRT CLEAR      9 -15  33 SW3       30.27R
$$
MNZ029>031-032-039>041-046>048-054>057-064-280200-
   West Central Minnesota

CITY           SKY/WX    TMP DP  RH WIND       PRES   REMARKS
FERGUS FALLS   CLEAR      7  -2  66 S7        30.44S WCI  -5
WHEATON        CLEAR      9   0  66 SE9       30.44S WCI  -5
MORRIS         CLEAR      7  -2  66 S7        30.42S WCI  -5
ALEXANDRIA     CLEAR      7  -4  60 S7        30.41S WCI  -5
ELBOW LAKE     FAIR       2  -4  74 S7        30.40S WCI -10
WADENA         CLEAR      3  -4  72 S3        30.39S
GLENWOOD       CLEAR      3  -2  78 S7        30.43R WCI  -9
APPLETON       CLEAR     10   0  61 SE5       30.45S WCI   2
BENSON         CLEAR      7   0  72 SW5       30.45S WCI  -2
ORTONVILLE     CLEAR      9   0  66 S6        30.43S WCI  -1
MADISON        CLEAR      9   0  66 SW7       30.45S WCI  -3
WILLMAR        FAIR       5  -2  72 SE5       30.47S WCI  -4
$$
MNZ033>034-036-042>043-049>051-058-059-280200-
   Central Minnesota

CITY           SKY/WX    TMP DP  RH WIND       PRES   REMARKS
ST CLOUD       CLEAR     10  -2  58 S9        30.46R WCI  -3
SAUK CENTRE    FAIR       6  -3  66 S6        30.44R WCI  -4
PAYNESVILLE    CLEAR      6  -3  67 SE5       30.46R WCI  -3
AITKIN         CLEAR     14  -9  34 S5        30.38R WCI   6
PINE RIVER     CLEAR     10  -4  52 SW5       30.41R WCI   2
BRAINERD       CLEAR      8  -9  45 SW8       30.40R WCI  -4
STAPLES        CLEAR      7  -8  51 SW5       30.40S WCI  -2
LONG PRAIRIE   FAIR       9  -2  61 S5        30.42S WCI   0
LITTLE FALLS   CLEAR      9  -8  47 S3        30.44S
LITCHFIELD     CLEAR      7  -2  66 CALM      30.48S
BUFFALO        CLEAR     10  -2  56 S5        30.50R WCI   2
MAPLE LAKE     CLEAR     10   0  63 S5        30.49R WCI   2
$$
MNZ037-044-045-052-053-280200-
   East Central Minnesota

CITY           SKY/WX    TMP DP  RH WIND       PRES   REMARKS
PRINCETON      CLEAR     10  -2  56 S6        30.47R WCI   1
MORA           CLEAR     12  -2  52 SW5       30.47R WCI   4
CAMBRIDGE      CLEAR     12   0  57 S5        30.47R WCI   4
RUSH CITY      CLEAR     12  -1  55 SW5       30.47R WCI   4
MOOSE LAKE     CLEAR     12  -8  40 CALM      30.40R
HINCKLEY       FAIR      10  -4  52 S5        30.45R WCI   2
CLOQUET        CLEAR     12  -9  37 SW6       30.38R WCI   3
MCGREGOR       CLEAR     12  -4  48 S6        30.40R WCI   3
$$
MNZ071>073-080-081-089-090-097-098-280200-
   Southwest Minnesota

CITY           SKY/WX    TMP DP  RH WIND       PRES   REMARKS
MONTEVIDEO     CLEAR      9   1  72 S3        30.47R
GRANITE FALLS  CLEAR      5  -2  71 S6        30.48S WCI  -5
CANBY          CLEAR     10  -1  62 S3        30.45S
MARSHALL       CLEAR      7  -2  66 S6        30.46S WCI  -3
REDWOOD FALLS  CLEAR      8   0  69 S6        30.48R WCI  -2
OLIVIA         CLEAR      5   0  78 S5        30.47S WCI  -4
PIPESTONE      CLEAR      3  -2  78 S7        30.41R WCI  -9
WINDOM         CLEAR      7   0  72 CALM      30.46S
WORTHINGTON    CLEAR     19  -6  32 S8        30.45S WCI   9
JACKSON        CLEAR      9   0  66 S5        30.46S WCI   0
TRACY          CLEAR      8   0  69 S7        30.45S WCI  -3
SLAYTON        CLEAR      5  -2  71 CALM      30.43S
$$
MNZ065>067-074>077-082>085-091>093-280200-
   South Central Minnesota

CITY           SKY/WX    TMP DP  RH WIND       PRES   REMARKS
MANKATO        CLEAR      7  -6  56 S8        30.51S WCI  -6
NEW ULM        CLEAR      7  -2  66 S5        30.50S WCI  -2
ST JAMES       CLEAR      7   0  72 S5        30.51S WCI  -2
FAIRMONT       CLEAR      3  -6  66 S7        30.48S WCI  -9
GLENCOE        CLEAR      9   2  75 S3        30.49S
FARIBAULT      CLEAR      5  -2  72 S5        30.52R WCI  -4
OWATONNA       CLEAR      3  -2  78 S6        30.51S WCI  -8
WASECA         CLEAR      0  -6  78 S5        30.53R WCI -10
ALBERT LEA     CLEAR      3   0  85 S5        30.51R WCI  -6
$$
MNZ078>079-086>088-094>096-280200-
   Southeast Minnesota

CITY           SKY/WX    TMP DP  RH WIND       PRES   REMARKS
ROCHESTER      CLEAR     -3  -8  79 S8        30.51R WCI -18
RED WING       CLEAR      9  -2  61 SW7       30.54R WCI  -3
STANTON        CLEAR      4  -4  71 S5        30.52R WCI  -6
DODGE CENTER   PTCLDY    -2  -8  78 SW6       30.50R WCI -14
WINONA         CLEAR     10   0  61 SW5       30.59R WCI   2
AUSTIN         CLEAR      1  -6  71 S5        30.51S WCI  -8
PRESTON        PTCLDY     1  -6  75 SW5       30.53R WCI  -9
$$
ABBREVIATIONS USED IN REMARKS
   TC - TEMPERATURES IN CELSIUS
  WCI - WIND CHILL INDEX
   HX - HEAT INDEX
  VSB - VISIBILITY
$$


USA.gov is the U.S. government's official web portal to all federal, state and local government web resources and services.